STARLINK-3836 (52577 NORAD) Tracking and Keplerian Element Data

This shows tracking and keplerian element data for the satellite.

Feedback or suggestion? Click here.




ElementValue
Catalog52577
NameSTARLINK-3836
Epoch Orbit130
Epoch Day167.08334491
Epoch Year2022
RAAN132.359
Inclination53.2178
Eccentricity0.0001754
Argument of Perigee41.6969
Mean Anonmoly214.9272
Mean Motion15.35253917
Decay Rate-0.00830047
L11 52577U 22051AT 22167.08334491 -.00830047 00000+0 -25849-1 0 9998
L22 52577 53.2178 132.3590 0001754 41.6969 214.9272 15.35253917 1301

Live tracking and technical data element details for STARLINK-3836 (NORAD 52577). STARLINK-3836 can be tracked NOW for your location showing map with azimuth and elevation plus other details from your city location.

Track the satellite on the map from your city or location and see movement details for azimuth, elevation, latitude, longitude, range, height, and movement on the map or in text.







IsCatalogInMostPopularTable: catalog: 52577, numindb: 4
Update: records affected: 1



GetName: 52577 STARLINK-3836

Hit Count: updated at: Mon, 27 Jun 2022 05:54:00 GMT